Regional Weather Roundup
Issued by NWS Charleston, SC

Current Version | Previous Version | Graphics & Text | Print | Product List | Glossary On
Versions: 1 2 3 4 5 6 7 8 9 10 11 12 13 14 15 16 17 18 19 20 21 22 23 24 25 26 27 28 29 30 31 32 33 34 35 36 37 38 39 40 41 42 43 44 45 46 47 48 49 50
713 ASUS42 KCHS 082327 RWRCHS REGIONAL WEATHER ROUNDUP NATIONAL WEATHER SERVICE CHARLESTON SC 600 PM EST MON FEB 08 2016 NOTE: "FAIR" INDICATES FEW OR NO CLOUDS BELOW 12,000 FEET WITH NO SIGNIFICANT WEATHER AND/OR OBSTRUCTIONS TO VISIBILITY. NOT ALL STATIONS ARE QUALITY CONTROLLED BY THE NATIONAL WEATHER SERVICE. USE DATA WITH CAUTION...ESPECIALLY DEWPOINT OBSERVATIONS. NOTICE: OBSERVATIONS FOR THE SAVANNAH-HILTON HEAD INTERNATIONAL AIRPORT /KSAV/ HAVE BEEN TEMPORARILY REMOVED DUE TO AN ERRONEOUS TEMPERATURE SENSOR. THE OBSERVATION WILL BE REINTRODUCED ONCE REPAIRS ARE COMPLETE. SCZ027-030-031-034>040-042>050-090000- ...SOUTHEAST SOUTH CAROLINA... CITY SKY/WX TMP DP RH WIND PRES REMARKS N CHARLESTON PTCLDY 55 38 52 W12 29.71S WATERFRONT PRK N/A 56 43 61 S14 29.56F MOUNT PLEASANT FAIR 55 39 54 S13 29.71S JOHNS ISLAND FAIR 55 43 62 SW10G17 29.71S PINOPOLIS N/A 57 36 44 S7 29.62R MONCKS CORNER LGT RAIN 45 41 87 CALM 29.76R SUMMERVILLE LGT RAIN 46 45 93 NW8 29.77R BEAUFORT MCAS LGT RAIN 55 38 52 NW18G35 29.74R BEAUFORT ARPT LGT RAIN 55 36 47 W25 29.73R HILTON HEAD IS CLOUDY 55 43 62 S6 29.72F WALTERBORO LGT RAIN 48 45 87 NW6 29.78R ALLENDALE CLOUDY 46 45 93 CALM 29.73F ...SOUTHERN MIDLANDS AND PEE DEE... CITY SKY/WX TMP DP RH WIND PRES REMARKS GEORGETOWN NOT AVBL KINGSTREE NOT AVBL ORANGEBURG MOCLDY 47 41 80 SW6 29.73F BARNWELL FAIR 46 45 93 CALM 29.74S AIKEN FAIR 46 30 53 W13 29.74S MANNING RAIN 45 41 87 W3 29.74F COLUMBIA PTCLDY 46 39 76 SW6 29.71S SUMTER MOCLDY 45 41 85 SW10 29.68F FLORENCE LGT RAIN 46 41 82 W13G22 29.74R MYRTLE BEACH CLEAR 54 36 50 SW15G21 29.70F N MYRTLE BEACH CLEAR 52 41 66 SW23G29 29.68F $$ GAZ063-065-086>088-099>101-113>116-118-119-134>141-150-090000- ...SOUTHEAST GEORGIA... CITY SKY/WX TMP DP RH WIND PRES REMARKS SAVANNAH ARPT CLOUDY 59 32 36 W15 29.74R HUNTER AAF LGT RAIN 57 39 51 W20G30 29.72 FORT STEWART RAIN 54 41 60 W25G32 29.74R STATESBORO CLOUDY 52 41 67 SW3 29.74F SYLVANIA CLOUDY 48 47 95 CALM 29.74F CLAXTON RAIN 49 45 88 SW14G25 29.78S ...CSRA...CENTRAL AND FAR SOUTHEAST GEORGIA... CITY SKY/WX TMP DP RH WIND PRES REMARKS THOMSON PTCLDY 50 36 57 W3 29.78S AUGUSTA-BUSH MOCLDY 50 34 54 W7 29.73S AUGUSTA-DANIEL CLEAR 50 32 50 SW6 29.73S SWAINSBORO FAIR 48 36 61 NW12G20 29.77R VIDALIA CLOUDY 48 43 81 SW5 29.75S EASTMAN FAIR 51 32 48 NW5 29.79R HAZLEHURST CLOUDY 49 45 87 SW3 29.75S ALMA LGT RAIN 49 46 90 NW14 29.79R WAYCROSS RAIN 51 50 96 N16G28 29.78R JESUP RAIN 52 48 87 NW17G25 29.78R BAXLEY RAIN 48 45 87 W10 29.78R BRUNSWICK CLOUDY 61 41 48 SW14G22 29.72F SAINT SIMONS MOCLDY 59 41 51 SW21 29.74F $$ SCZ027-028-034-036>038-045-046-048>050-GAZ119-141-090000- ...LAKE AND SUPPLEMENTAL COASTAL OBSERVATIONS... STATION/POSITION TIME TEMP WIND PRES WAVE SWELL AIR SEA DIR/SP/G HT/PER HT/PER/DIR (UTC) (F) (DEG/KT/KT) (MB) (FT/S) (FT/S/D) WINYAH BAY 2145 54 220/ 15 1005.0 LAKE MURRAY 2300 51 280/ 13/ 20 1005.4S ACE BASIN NERRS 2200 56 180/ 2 1006.0 FORT PULASKI 2300 59 53 230/ 15/ 22 1006.7R SAPELO ISLAND 2300 58 210/ 16 1006.0F $$ ANZ835-935-AMZ111-154-330-350-352-354-370-450-454-472-090000- ...C-MAN AND BUOY OBSERVATIONS... STATION/POSITION TIME TEMP WIND PRES WAVE SWELL AIR SEA DIR/SP/G HT/PER HT/PER/DIR (UTC) (F) (DEG/KT/KT) (MB) (FT/S) (FT/S/D) BUOY 41004 2250 60 65 220/ 27/ 33 1005.8F 8/ 7 3/11 BUOY 41008 2250 57 55 200/ 14/ 16 1006.9F 3/15 2/ 20/15 FOLLY BEACH CMAN 2300 56 200/ 20/ 23 1005.8F CAPERS NEARSHORE 2208 55 220/ 19/ 25 1005.7F FRIPP NEARSHORE 2200 56 200/ 21/ 25 1006.0F STATION/POSITION TIME TEMP WIND PRES WAVE SWELL AIR SEA DIR/SP/G HT/PER HT/PER/DIR (UTC) (F) (DEG/KT/KT) (MB) (FT/S) (FT/S/D) 5E ST. MARYS GA 2221 55 N/A 4/15 3/100/15 FRYING PAN BUOY 2300 59 62 230/ 25/ 31 1005.8F BUOY 41025 2250 51 74 10/ 2/ 6 1007.2F 10/13 10/ 70/13 CAPE LOOKOUT NC NOT AVBL BUOY 41002 2250 63 69 250/ 21/ 27 N/A 13/15 11/320/15 BUOY 41010 2220 63 72 1012.3F ST AUGUSTINE FL 2300 60 58 230/ 10/ 12 1010.6F $$

USA.gov is the U.S. government's official web portal to all federal, state and local government web resources and services.